Location: Bermeries
(50.2863°N, 3.7551°E)
Time: 13:12:16
(UTC+00:00)

Aureole 3 - Pass Details

Date: 23 May 2024
Orbit: 378 x 1127 km, 82.5° (Epoch: 16 June)

Event Time Altitude Azimuth Distance (km) Brightness Sun altitude
Exits shadow 01:09:41 36° 254° (WSW) 621 3.3 -16.5°
Maximum altitude 01:10:13 40° 284° (WNW) 573 3.3 -16.4°
Drops below altitude 10° 01:13:06 10° 357° (N) 1,428 6.5 -16.3°
Sets 01:15:13 0° 5° (N) 2,331 8.0 -16.1°
